Location: Palau
(42.3086°N, 3.1507°E)
Time: 22:39:03
(UTC+00:00)

STARLINK-1105 - Pass Details

Date: 26 May 2020
Orbit: 549 x 550 km, 53.0° (Epoch: 12 July)

Event Time Altitude Azimuth Distance (km) Brightness Sun altitude
Rises 01:35:12 0° 306° (NW) 2,713 7.3 -21.6°
Reaches altitude 10° 01:37:26 10° 306° (NW) 1,817 6.3 -21.4°
Maximum altitude 01:41:34 88° 222° (SW) 550 3.5 -21.0°
Drops below altitude 10° 01:45:41 10° 129° (SE) 1,806 6.1 -20.6°
Sets 01:47:54 0° 129° (SE) 2,696 7.1 -20.4°
